KB6LA Weather Reports


time (UTC)temp
C
wind
direction
speed
KPH
gust
KPH
rain 1hr
cm
rain 24hr
cm
rain mn
cm
humidity
%
barometer
mb
20260906161916 19 250 3.2 4.8 0.15 0.66 0.66 90 1014.5
20260906161318 19 231 3.2 3.2 0.10 0.61 0.61 90 1014.5
20260906160719 20 250 3.2 3.2 0.08 0.58 0.58 89 1014.1
20260906155517 20 243 3.2 3.2 0.03 0.53 0.53 89 1013.8
20260906154920 20 242 1.6 1.6 0.00 0.51 0.51 89 1013.4
20260906154315 20 269 3.2 3.2 0.03 0.51 0.51 89 1013.4
20260906153717 20 344 0.0 0.0 0.03 0.51 0.51 89 1013.1
20260906153119 19 344 0.0 0.0 0.03 0.51 0.51 89 1012.8
20260906152517 19 358 0.0 1.6 0.03 0.51 0.51 89 1012.8
20260906151917 19 319 0.0 0.0 0.05 0.51 0.51 88 1012.4
20260906151321 18 327 1.6 1.6 0.05 0.51 0.51 88 1012.4
20260906150715 18 337 3.2 3.2 0.08 0.51 0.51 88 1012.4
20260906150117 18 359 3.2 4.8 0.08 0.51 0.51 87 1012.4
20260906145519 18 352 1.6 1.6 0.08 0.51 0.51 87 1012.4
20260906144316 17 12 3.2 4.8 0.10 0.48 0.48 87 1012.1
20260906143721 17 333 3.2 3.2 0.10 0.48 0.48 87 1012.1
20260906143116 17 2 6.4 6.4 0.15 0.48 0.48 87 1012.4
20260906142519 17 342 9.7 14.5 0.18 0.48 0.48 86 1012.4
20260906141918 17 18 11.3 14.5 0.15 0.46 0.46 86 1012.1
20260906141316 17 314 4.8 6.4 0.18 0.46 0.46 86 1012.4
20260906140718 17 344 9.7 14.5 0.18 0.43 0.43 86 1012.4
20260906140121 17 2 14.5 16.1 0.20 0.43 0.43 86 1012.1
20260906134917 17 10 6.4 11.3 0.23 0.38 0.38 86 1012.8
20260906134319 17 356 8.0 9.7 0.28 0.38 0.38 86 1012.8
20260906133716 17 5 6.4 6.4 0.28 0.38 0.38 86 1012.8
20260906133116 17 329 3.2 4.8 0.28 0.33 0.33 86 1012.4
20260906132521 18 316 9.7 11.3 0.25 0.30 0.30 85 1012.8
20260906131317 18 299 3.2 3.2 0.28 0.28 0.28 85 1013.1
20260906130719 18 43 9.7 11.3 0.25 0.25 0.25 84 1012.8
20260906130117 19 9 8.0 9.7 0.23 0.23 0.23 83 1012.4
20260906125514 19 354 4.8 4.8 0.18 0.18 0.18 81 1012.4
20260906124922 20 313 6.4 9.7 0.15 0.15 0.15 79 1013.1
20260906124316 21 212 4.8 4.8 0.10 0.10 0.10 75 1013.4
20260906123120 21 294 0.0 1.6 0.05 0.05 0.05 66 1012.8
20260906122516 22 1 3.2 3.2 0.05 0.05 0.05 62 1012.1
20260906121915 22 179 3.2 3.2 0.00 0.00 0.00 57 1011.8
20260906121320 22 237 1.6 1.6 0.00 0.00 0.00 54 1011.8
20260906120716 22 258 3.2 3.2 0.00 0.00 0.00 52 1011.4
20260906120115 22 323 0.0 0.0 0.00 0.00 0.00 51 1011.4
20260906115520 22 323 0.0 0.0 0.00 0.00 0.00 50 1011.1
20260906114916 22 323 1.6 1.6 0.00 0.00 0.00 51 1010.7
20260906113116 22 348 1.6 1.6 0.00 0.00 0.00 51 1011.1
20260906112516 21 319 3.2 3.2 0.00 0.00 0.00 52 1011.1
20260906111920 21 321 1.6 1.6 0.00 0.00 0.00 52 1011.1
20260906111318 22 321 1.6 1.6 0.00 0.00 0.00 52 1011.1
20260906110716 22 335 3.2 3.2 0.00 0.00 0.00 52 1010.7
20260906110120 22 334 0.0 0.0 0.00 0.00 0.00 51 1011.1
20260906105516 22 334 0.0 1.6 0.00 0.00 0.00 50 1011.1
20260906104918 22 334 1.6 1.6 0.00 0.00 0.00 49 1011.1
20260906103715 22 331 0.0 0.0 0.00 0.00 0.00 48 1011.1
20260906103115 22 327 3.2 3.2 0.00 0.00 0.00 47 1011.1
20260906101917 22 275 0.0 0.0 0.00 0.00 0.00 46 1011.1
20260906101317 22 344 1.6 1.6 0.00 0.00 0.00 44 1011.1
20260906100721 22 345 3.2 3.2 0.00 0.00 0.00 47 1010.7
20260906094921 22 339 0.0 0.0 0.00 0.00 0.00 47 1011.1
20260906093717 22 339 0.0 1.6 0.00 0.00 0.00 47 1011.1
20260906093121 21 339 1.6 1.6 0.00 0.00 0.00 47 1011.1
20260906092518 21 339 1.6 1.6 0.00 0.00 0.00 48 1011.1
20260906091914 21 339 1.6 1.6 0.00 0.00 0.00 49 1011.1
20260906091321 21 339 0.0 1.6 0.00 0.00 0.00 50 1010.7
20260906090717 21 339 0.0 0.0 0.00 0.00 0.00 50 1011.1
20260906090117 21 339 0.0 0.0 0.00 0.00 0.00 50 1011.1
20260906085520 21 339 0.0 0.0 0.00 0.00 0.00 50 1011.1
20260906084916 21 339 0.0 0.0 0.00 0.00 0.00 50 1011.1
20260906084317 21 339 0.0 0.0 0.00 0.00 0.00 50 1011.4
20260906083721 21 339 0.0 1.6 0.00 0.00 0.00 50 1011.4
20260906083116 21 335 0.0 1.6 0.00 0.00 0.00 50 1011.1
20260906082516 21 335 0.0 1.6 0.00 0.00 0.00 49 1011.4
20260906081316 21 335 0.0 1.6 0.00 0.00 0.00 50 1011.4
20260906080625 21 335 0.0 1.6 0.00 0.00 0.00 49 1011.4
20260906080121 21 335 1.6 1.6 0.00 0.00 0.00 49 1011.4
20260906075516 21 335 0.0 0.0 0.00 0.00 0.00 49 1011.4
20260906074320 21 335 0.0 1.6 0.00 0.00 0.00 49 1011.4
20260906073115 21 335 1.6 1.6 0.00 0.00 0.00 47 1011.4
20260906072519 21 335 0.0 0.0 0.00 0.00 0.00 47 1011.4
20260906071916 21 335 0.0 0.0 0.00 0.00 0.00 47 1011.4
20260906071318 21 335 0.0 1.6 0.00 0.00 0.00 47 1011.4
20260906064316 21 338 0.0 0.0 0.00 0.00 0.00 49 1011.4
20260906063716 21 333 1.6 1.6 0.00 0.00 0.00 50 1011.4
20260906062518 21 331 0.0 0.0 0.00 0.00 0.00 50 1011.4
20260906061916 21 331 0.0 0.0 0.00 0.00 0.00 51 1011.4
20260906061322 21 331 0.0 0.0 0.00 0.00 0.00 51 1011.8
20260906060715 21 331 1.6 1.6 0.00 0.00 0.00 51 1011.4
20260906060117 21 330 0.0 1.6 0.00 0.00 0.00 51 1011.4
20260906055519 21 329 0.0 1.6 0.00 0.00 0.00 52 1011.4
20260906054917 21 328 1.6 1.6 0.00 0.00 0.00 51 1011.4
20260906054319 22 328 0.0 1.6 0.00 0.00 0.00 51 1011.8
20260906053723 22 328 0.0 0.0 0.00 0.00 0.00 57 1011.4
20260906053115 22 328 0.0 0.0 0.00 0.00 0.00 49 1011.4
20260906052516 22 328 0.0 1.6 0.00 0.00 0.00 49 1011.4
20260906051918 22 328 0.0 1.6 0.00 0.00 0.00 49 1011.8
20260906050730 22 329 0.0 0.0 0.00 0.00 0.00 51 1011.8
20260906050119 22 329 0.0 1.6 0.00 0.00 0.00 52 1011.8
20260906045517 22 327 0.0 0.0 0.00 0.00 0.00 54 1011.8
20260906044916 22 328 0.0 0.0 0.00 0.00 0.00 59 1011.8
20260906043717 22 323 0.0 0.0 0.00 0.00 0.00 60 1011.8
20260906043116 23 316 0.0 0.0 0.00 0.00 0.00 62 1011.8
20260906042524 23 325 1.6 1.6 0.00 0.00 0.00 64 1011.8
20260906041317 23 246 0.0 0.0 0.00 0.00 0.00 64 1011.8
20260906040719 23 246 0.0 0.0 0.00 0.00 0.00 64 1011.8
20260906040119 23 246 0.0 0.0 0.00 0.00 0.00 64 1011.4
20260906034316 23 252 1.6 1.6 0.00 0.00 0.00 66 1011.4
20260906033716 23 274 0.0 1.6 0.00 0.00 0.00 66 1011.4
20260906033118 23 277 1.6 1.6 0.00 0.00 0.00 65 1011.1
20260906032518 23 259 1.6 1.6 0.00 0.00 0.00 65 1011.1
20260906031916 23 232 3.2 3.2 0.00 0.00 0.00 64 1011.1
20260906031320 23 260 1.6 3.2 0.00 0.00 0.00 64 1011.1
20260906030716 23 276 1.6 1.6 0.00 0.00 0.00 66 1011.1
20260906030117 23 269 1.6 1.6 0.00 0.00 0.00 66 1010.7
20260906025520 23 241 1.6 3.2 0.00 0.00 0.00 65 1010.7
20260906024315 23 225 4.8 4.8 0.00 0.00 0.00 59 1011.1
20260906023115 24 233 3.2 3.2 0.00 0.00 0.00 52 1010.7
20260906022517 24 281 3.2 3.2 0.00 0.00 0.00 49 1011.1
20260906021919 24 233 3.2 4.8 0.00 0.00 0.00 47 1011.1
20260906021317 25 281 4.8 4.8 0.00 0.00 0.00 45 1010.7
20260906020715 25 266 6.4 6.4 0.00 0.00 0.00 46 1010.7
20260906020120 25 269 8.0 9.7 0.00 0.00 0.00 46 1011.1
20260906015516 25 300 4.8 6.4 0.00 0.00 0.00 46 1011.1
20260906014917 25 220 6.4 9.7 0.00 0.00 0.00 44 1011.1
20260906014323 25 297 4.8 6.4 0.00 0.00 0.00 45 1011.1
20260906013717 25 273 8.0 9.7 0.00 0.00 0.00 44 1011.1
20260906013116 25 258 9.7 11.3 0.00 0.00 0.00 49 1011.1
20260906012520 25 202 8.0 9.7 0.00 0.00 0.00 50 1011.1
20260906011915 25 213 8.0 11.3 0.00 0.00 0.00 52 1011.1
20260906011317 25 254 8.0 11.3 0.00 0.00 0.00 48 1011.1
20260906010722 26 235 6.4 6.4 0.00 0.00 0.00 47 1011.1
20260906010118 25 268 6.4 9.7 0.00 0.00 0.00 47 1011.1
20260906005516 26 239 9.7 12.9 0.00 0.00 0.00 47 1011.1
20260906004919 26 273 9.7 11.3 0.00 0.00 0.00 48 1011.1
20260906004318 26 277 6.4 6.4 0.00 0.00 0.00 47 1011.1
20260906003717 26 272 6.4 9.7 0.00 0.00 0.00 47 1011.1
20260906003118 26 278 8.0 9.7 0.00 0.00 0.00 49 1010.7
20260906002517 26 249 9.7 12.9 0.00 0.00 0.00 48 1011.1
20260906001916 26 231 8.0 11.3 0.00 0.00 0.00 51 1011.1
20260906000716 26 248 12.9 14.5 0.00 0.00 0.00 52 1011.1
20260906000119 26 239 6.4 11.3 0.00 0.00 0.00 50 1011.1
20260905234918 26 249 9.7 14.5 0.00 0.00 0.00 50 1010.7
20260905234317 26 253 6.4 6.4 0.00 0.00 0.00 53 1010.7
20260905233117 27 206 11.3 12.9 0.00 0.00 0.00 51 1010.7
20260905232517 27 260 9.7 12.9 0.00 0.00 0.00 52 1011.1
20260905231919 27 262 14.5 16.1 0.00 0.00 0.00 45 1010.7
20260905231318 26 231 9.7 12.9 0.00 0.00 0.00 52 1011.1
20260905230716 27 230 11.3 14.5 0.00 0.00 0.00 51 1011.1
20260905230121 27 258 12.9 16.1 0.00 0.00 0.00 50 1011.1
20260905225517 27 248 9.7 11.3 0.00 0.00 0.00 52 1011.1
20260905224918 28 239 14.5 17.7 0.00 0.00 0.00 47 1011.1
20260905224320 27 290 6.4 9.7 0.00 0.00 0.00 51 1011.1
20260905223719 27 214 9.7 11.3 0.00 0.00 0.00 44 1011.4
20260905223119 27 223 11.3 12.9 0.00 0.00 0.00 49 1011.4
20260905222521 28 246 12.9 12.9 0.00 0.00 0.00 44 1011.4
20260905221916 28 215 6.4 9.7 0.00 0.00 0.00 44 1011.4
20260905221317 27 214 16.1 17.7 0.00 0.00 0.00 43 1011.4
20260905220721 28 196 14.5 16.1 0.00 0.00 0.00 43 1011.8
20260905220118 28 231 14.5 16.1 0.00 0.00 0.00 42 1011.8
20260905215516 28 208 6.4 12.9 0.00 0.00 0.00 39 1011.4
20260905214921 28 224 11.3 16.1 0.00 0.00 0.00 42 1011.4
20260905214317 28 224 14.5 16.1 0.00 0.00 0.00 42 1011.8
20260905213717 28 288 4.8 4.8 0.00 0.00 0.00 41 1011.8
20260905213119 28 230 9.7 12.9 0.00 0.00 0.00 41 1011.8
20260905212517 28 264 9.7 11.3 0.00 0.00 0.00 44 1011.8
20260905211915 28 219 11.3 12.9 0.00 0.00 0.00 42 1011.8
20260905211321 27 279 6.4 6.4 0.00 0.00 0.00 50 1012.1
20260905210716 27 271 6.4 11.3 0.00 0.00 0.00 52 1012.1
20260905210116 27 246 9.7 11.3 0.00 0.00 0.00 51 1012.1
20260905205518 27 241 14.5 14.5 0.00 0.00 0.00 53 1012.1
20260905204917 26 197 11.3 14.5 0.00 0.00 0.00 56 1012.1
20260905204317 26 215 12.9 14.5 0.00 0.00 0.00 54 1012.4
20260905203719 26 264 11.3 12.9 0.00 0.00 0.00 58 1012.4
20260905202516 27 234 11.3 12.9 0.00 0.00 0.00 56 1012.4
20260905201918 27 209 9.7 11.3 0.00 0.00 0.00 54 1012.4
20260905201318 27 263 4.8 6.4 0.00 0.00 0.00 56 1012.4
20260905200716 27 211 9.7 12.9 0.00 0.00 0.00 56 1012.4
20260905200121 27 272 9.7 11.3 0.00 0.00 0.00 57 1012.4
20260905195517 27 233 11.3 14.5 0.00 0.00 0.00 55 1012.4
20260905194917 26 243 6.4 9.7 0.00 0.00 0.00 57 1012.8
20260905193722 26 229 12.9 14.5 0.00 0.00 0.00 58 1012.8
20260905192520 26 261 9.7 11.3 0.00 0.00 0.00 59 1012.8
20260905191918 26 228 12.9 12.9 0.00 0.00 0.00 60 1012.8
20260905191317 26 228 9.7 11.3 0.00 0.00 0.00 60 1012.8
20260905190718 26 200 9.7 11.3 0.00 0.00 0.00 60 1013.1
20260905190118 26 210 4.8 6.4 0.00 0.00 0.00 61 1013.1
20260905185516 26 242 8.0 12.9 0.00 0.00 0.00 58 1013.1
20260905184921 26 242 8.0 9.7 0.00 0.00 0.00 58 1013.4
20260905184317 26 218 6.4 9.7 0.00 0.00 0.00 61 1013.4
20260905183718 25 61 6.4 6.4 0.00 0.00 0.00 64 1013.4
20260905183122 25 242 9.7 11.3 0.00 0.00 0.00 64 1013.4
20260905182517 25 216 8.0 9.7 0.00 0.00 0.00 64 1013.4
20260905181915 25 274 4.8 6.4 0.00 0.00 0.00 66 1013.4
20260905180717 25 228 14.5 16.1 0.00 0.00 0.00 62 1013.4
20260905180118 26 221 8.0 12.9 0.00 0.00 0.00 60 1013.4
20260905175519 27 161 8.0 9.7 0.00 0.00 0.00 47 1013.4
20260905174316 26 12 1.6 1.6 0.00 0.00 0.00 53 1013.4
20260905173723 26 191 1.6 3.2 0.00 0.00 0.00 54 1013.4
20260905173117 25 350 1.6 1.6 0.00 0.00 0.00 53 1013.4
20260905172517 25 154 4.8 4.8 0.00 0.00 0.00 54 1013.4
20260905171919 25 256 3.2 3.2 0.00 0.00 0.00 54 1013.4
20260905171320 24 189 6.4 6.4 0.00 0.00 0.00 58 1013.4
20260905170716 25 183 9.7 11.3 0.00 0.00 0.00 56 1013.4
20260905170121 25 241 1.6 1.6 0.00 0.00 0.00 55 1013.4
20260905165516 25 161 4.8 4.8 0.00 0.00 0.00 57 1013.4
20260905164917 25 115 4.8 4.8 0.00 0.00 0.00 56 1013.1
20260905164319 24 158 1.6 1.6 0.00 0.00 0.00 60 1013.1
20260905163717 24 153 3.2 3.2 0.00 0.00 0.00 59 1013.1
20260905163117 24 41 1.6 1.6 0.00 0.00 0.00 61 1013.1